Regional Weather Roundup
Issued by NWS

Home | Current Version | Previous Version | Graphics & Text | Print | Product List | Glossary On
Versions: 1 2 3 4 5 6 7 8 9 10 11 12 13 14 15 16 17 18 19 20 21 22 23 24 25 26 27 28 29 30 31 32 33 34 35 36 37 38 39 40 41 42 43 44 45 46 47 48 49 50
000
ASUS45 KBOU 271707
RWRCO

WEATHER ROUNDUP FOR COLORADO
NATIONAL WEATHER SERVICE DENVER/BOULDER CO
1100 AM MDT TUE JUN 27 2017

NOTE: "FAIR" INDICATES FEW OR NO CLOUDS BELOW 12000 FEET WITH NO
SIGNIFICANT WEATHER AND/OR OBSTRUCTIONS TO VISIBILITY.

COZ001>005-013-030-031-271800-
...NORTHWEST COLORADO...

CITY           SKY/WX    TMP DP  RH WIND       PRES   REMARKS
CRAIG          FAIR      84  28  13 SW15G26   30.02F
HAYDEN         FAIR      79  36  21 NW9       30.05F
MEEKER         FAIR      82  27  13 SW17G29   30.03F
RABBIT EARS PA FAIR      63  34  34 W10G20    30.35S
STEAMBOAT SPGS FAIR      72  43  35 NW5       30.07F
WALDEN         FAIR      75  30  19 SW15G28   30.15S
$$

COZ006>008-011-271800-
...WEST CENTRAL VALLEYS...

CITY           SKY/WX    TMP DP  RH WIND       PRES   REMARKS
GRAND JUNCTION FAIR      90  27  10 W7        29.95F
MONTROSE       FAIR      87  22   9 W14       30.06F
EAGLE          SUNNY     79  36  21 CALM      30.09
RIFLE          FAIR      83  31  15 NW8       30.00F
DELTA          FAIR      89  30  12 S7        30.02F
NUCLA          NOT AVBL
$$

COZ017>023-064>068-271800-
...SOUTHWEST COLORADO...

CITY           SKY/WX    TMP DP  RH WIND       PRES   REMARKS
DURANGO        FAIR      75  40  28 E6        30.21F
CORTEZ         FAIR      83  37  19 SW10      30.13F
PAGOSA SPRINGS FAIR      71  35  26 CALM      30.29F
TELLURIDE      FAIR      73  20  13 SW9G21    30.35F
WOLF CREEK PAS FAIR      55  36  47 S10G17    30.61F
$$

COZ009-010-012-014-032>034-037-058>063-271800-
...CENTRAL COLORADO...

CITY           SKY/WX    TMP DP  RH WIND       PRES   REMARKS
ASPEN          FAIR      79  24  13 SW10G22   30.16F
BUENA VISTA    FAIR      72  35  25 CALM      30.21F
COPPER MTN     NOT AVBL
BERTHOUD PASS  FAIR      52  37  58 NW35G40   30.49F
COTTONWOOD PAS FAIR      70  32  24 CALM      30.36F
GUNNISON       FAIR      72  38  29 S6        30.22F
KREMMLING      NOT AVBL
LEADVILLE      FAIR      67  22  18 W8G17     30.33F
MONARCH PASS   FAIR      55  32  41 SW25G33   30.63F
SALIDA         FAIR      78  37  23 S13G24    30.25F
SUNLIGHT       FAIR      64  32  29 SW14G25   30.42S
WILKERSON PASS FAIR      63  27  25 SW15G24   30.47F
$$

COZ069>075-271800-
...SAN LUIS VALLEY/SANGRE DE CRISTO MOUNTAINS...

CITY           SKY/WX    TMP DP  RH WIND       PRES   REMARKS
ALAMOSA        FAIR      69  45  41 VRB3      30.24F
DEL NORTE      FAIR      68  41  37 E5        30.28F
LA VETA PASS   FAIR      61  41  48 S12       30.53S
SAGUACHE       FAIR      68  41  37 S8        30.28F
$$

COZ035-036-038>040-271800-
...NORTHERN COLORADO FRONT RANGE...

CITY           SKY/WX    TMP DP  RH WIND       PRES   REMARKS
DENVER INTL AP FAIR      87  41  19 VRB3      29.93F
DMNS CITY PARK   N/A     83  49  31 N15       29.91F
AURORA         MOSUNNY   89  38  16 SW6       29.95F
FRONT RANGE AP FAIR      90  36  14 SW12      29.95F
ERIE MUNI ARPT FAIR      77  52  41 CALM      29.91F
BOULDER MUN AP FAIR      73  55  53 CALM      29.91F
CENTENNIAL     PTSUNNY   84  35  17 SW20G28   29.96F
BROOMFIELD     FAIR      81  50  34 S6        29.96F
FORT COLLINS   FAIR      79  54  41 VRB6      29.90F
LONGMONT       FAIR      78  55  45 S5        29.91F
$$

COZ041-046-047-076>085-087-088-271800-
...PIKES PEAK/PALMER DIVIDE AND SOUTHERN FOOTHILLS...

CITY           SKY/WX    TMP DP  RH WIND       PRES   REMARKS
COLO. SPRINGS  PTSUNNY   76  45  33 E8        30.04F
A. F. ACADEMY  CLOUDY    80  40  23 SW12G24   30.05F
SCHRIEVER AFB  FAIR      80  41  24 SW9G21    30.05F
CHEYENNE MTN   PTSUNNY   73  45  36 SW5       30.04F
ELLICOTT       FAIR     N/A N/A N/A SW15      30.03F
FALCON           N/A     83  31  15 SW14G24   30.10F
FORT CARSON    PTSUNNY   85  40  20 W7        30.00F
LIMON          FAIR      84  47  27 S14       29.96F
MONUMENT HILL  FAIR      77  34  20 W20G35    30.11S
CANON CITY     SUNNY     90  41  18 W14G22    29.98F
WALSENBURG     FAIR      88  39  18 W17       30.06F
TRINIDAD       FAIR      86  43  22 W10       30.05F
$$

COZ042>045-048>051-090-091-271800-
...NORTHEAST COLORADO...

CITY           SKY/WX    TMP DP  RH WIND       PRES   REMARKS
GREELEY ARPT   FAIR      79  56  45 S5        29.89F
AKRON          FAIR      88  41  19 SW14      29.90F
BURLINGTON     FAIR      86  55  34 S21G29    29.91F
WRAY           FAIR      77  59  53 SE13G18   29.90F
YUMA           FAIR      79  55  44 S15G23    29.89F
STERLING       FAIR      84  55  37 SW6       29.84F
HOLYOKE        NOT AVBL
FORT MORGAN    FAIR      82  47  28 S6        29.89F
$$

COZ086-089-092>099-271800-
...SOUTHEAST COLORADO...

CITY           SKY/WX    TMP DP  RH WIND       PRES   REMARKS
PUEBLO         FAIR      83  51  33 SE7       29.94F
LA JUNTA       FAIR      87  53  31 S8        29.93F
LAMAR          FAIR      91  50  24 SW9       29.90F
SPRINGFIELD      N/A     86  52  30 S20G31    29.98F
$$



USA.gov is the U.S. government's official web portal to all federal, state and local government web resources and services.